Home   Weather   Liverpool   Past weeks

Flag for United Kingdom Past Weather in Liverpool, England, United Kingdom — Yesterday and Last 2 Weeks

Now
46 °F

Passing clouds.


Feels Like: 44 °F
Forecast: 50 / 56 °F
Wind: 6 mph from Southeast

Location: Liverpool Airport

Current Time: Dec 9, 2016 at 12:17:43 am

Latest Report: Dec 8, 2016 at 11:20 pm


Visibility: N/A

Pressure: 30.21 "Hg

Humidity: 93%

Dew Point: 45 °F

Location of LiverpoolLocation

Past Weather in Liverpool — Graph

°F

Liverpool Temperature Yesterday

Maximum temperature yesterday: 55 °F (at 12:20 am)
Minimum temperature yesterday: 45 °F (at 7:20 pm)
Average temperature yesterday: 51 °F

High & Low Weather Summary for the Past Weeks

 TemperatureHumidityPressure
High59 °F (Dec 7, 1:20 pm)100% (Nov 26, 2:20 am)30.57 "Hg (Nov 26, 2:20 am)
Low27 °F (Nov 29, 7:50 am)58% (Nov 28, 1:50 pm)30.04 "Hg (Dec 8, 9:50 am)
Average41 °F88%30.32 "Hg
* Reported Nov 23 11:20 pm — Dec 8 11:20 pm, Liverpool, Weather by CustomWeather, © 2016

Note: Actual official high and low records may vary slightly from our data, if they occured in-between our weather recording intervals... More about our weather records

Advertising

Liverpool Weather History for the Previous 24 Hours

Scroll right to see more
 ConditionsComfort  
Time TempWeatherWind HumidityBarometerVisibility
11:20 pm
Thu, Dec 8
46 °FPassing clouds.6 mph93%30.21 "HgN/A
10:50 pm45 °FClear.7 mph93%30.21 "Hg10 mi
10:20 pm46 °FClear.7 mph93%30.21 "Hg10 mi
9:50 pm46 °FPassing clouds.5 mph93%30.24 "HgN/A
9:20 pm46 °FClear.7 mph93%30.24 "Hg10 mi
8:50 pm45 °FClear.7 mph93%30.21 "Hg10 mi
8:20 pm46 °FClear.6 mph93%30.24 "Hg10 mi
7:50 pm45 °FClear.6 mph93%30.24 "Hg10 mi
7:20 pm45 °FClear.6 mph93%30.21 "Hg10 mi
6:50 pm46 °FClear.3 mph93%30.21 "Hg10 mi
6:20 pm46 °FClear.5 mph87%30.21 "Hg10 mi
5:50 pm50 °FClear.1 mph82%30.21 "Hg10 mi
5:20 pm48 °FPassing clouds.2 mph87%30.21 "HgN/A
4:50 pm50 °FPassing clouds.6 mph88%30.21 "HgN/A
4:20 pm50 °FPassing clouds.5 mph88%30.21 "HgN/A
3:50 pm50 °FPassing clouds.9 mph88%30.21 "HgN/A
3:20 pm52 °FPassing clouds.14 mph88%30.18 "HgN/A
2:50 pm52 °FPassing clouds.14 mph88%30.18 "HgN/A
2:20 pm54 °FPassing clouds.14 mph82%30.15 "HgN/A
1:50 pm54 °FScattered clouds.13 mph88%30.15 "HgN/A
1:20 pm54 °FScattered clouds.No wind88%30.15 "HgN/A
12:50 pm52 °FBroken clouds.No wind100%30.15 "HgN/A
12:20 pm52 °FBroken clouds.No wind94%30.12 "HgN/A
11:50 am52 °FLight rain. Broken clouds.No wind94%30.09 "Hg1 mi
11:20 am54 °FDrizzle. Partly sunny.No wind94%30.07 "Hg3 mi
10:50 am55 °FScattered showers. Partly sunny.No wind94%30.07 "HgN/A
10:20 am55 °FPartly sunny.No wind94%30.04 "HgN/A
9:50 am55 °FBroken clouds.17 mph94%30.04 "HgN/A
9:20 am54 °FBroken clouds.13 mph94%30.07 "Hg6 mi
8:50 am54 °FMostly cloudy.15 mph94%30.07 "HgN/A
8:20 am54 °FPartly sunny.13 mph100%30.07 "Hg5 mi
7:50 am54 °FPartly cloudy.12 mph94%30.07 "Hg3 mi
7:20 am54 °FLight rain. Overcast.9 mph94%30.07 "Hg2 mi
6:50 am54 °FRain. Overcast.10 mph94%30.09 "Hg2 mi
6:20 am52 °FRain. Partly cloudy.9 mph100%30.09 "Hg3 mi
5:50 am52 °FRain. Partly cloudy.No wind100%30.09 "Hg4 mi
5:20 am54 °FRain. Partly cloudy.No wind94%30.09 "Hg2 mi
4:50 am54 °FRain. Partly cloudy.No wind94%30.12 "Hg5 mi
4:20 am54 °FScattered showers. Partly cloudy.No wind94%30.12 "Hg5 mi
3:50 am54 °FRain. Passing clouds.No wind94%30.12 "Hg4 mi
3:20 am54 °FRain. Mostly cloudy.No wind94%30.12 "HgN/A
2:20 am55 °FPassing clouds.No wind88%30.12 "HgN/A
1:20 am55 °FPassing clouds.No wind94%30.12 "HgN/A
12:50 am55 °FPassing clouds.No wind88%30.12 "HgN/A
12:20 am55 °FPassing clouds.No wind88%30.12 "HgN/A
Weather by CustomWeather, © 2016

See weather overviewHow to use our weather pages